Time,TemperatureF,DewpointF,PressureIn,WindDirection,WindDirectionDegrees,WindSpeedMPH,WindSpeedGustMPH,Humidity,HourlyPrecipIn,Conditions,Clouds,dailyrainin,SoftwareType,DateUTC
2013-07-24 00:00:00,64.8,60.8,29.92,NNE,21,4.0,6.0,87,0.00,,---,0.00,VWS V14.01,2013-07-24 05:00:00,
2013-07-24 00:03:00,64.7,60.8,29.92,NE,36,4.0,6.0,87,0.00,,---,0.00,VWS V14.01,2013-07-24 05:03:00,
2013-07-24 00:08:00,64.7,60.4,29.92,NE,42,3.0,7.0,86,0.00,,---,0.00,VWS V14.01,2013-07-24 05:08:00,
2013-07-24 00:13:00,64.7,60.4,29.92,ENE,70,3.0,9.0,86,0.00,,---,0.00,VWS V14.01,2013-07-24 05:13:00,
2013-07-24 00:18:00,64.5,60.2,29.92,ENE,66,4.0,9.0,86,0.00,,---,0.00,VWS V14.01,2013-07-24 05:18:00,
2013-07-24 00:24:00,64.3,60.3,29.92,ENE,74,5.0,9.0,87,0.00,,---,0.00,VWS V14.01,2013-07-24 05:24:00,
2013-07-24 00:29:00,64.2,60.3,29.93,ESE,102,0.0,4.0,87,0.00,,---,0.00,VWS V14.01,2013-07-24 05:29:00,
2013-07-24 00:30:00,64.2,60.3,29.93,East,80,0.0,9.0,87,0.00,,---,0.00,VWS V14.01,2013-07-24 05:30:00,
2013-07-24 00:34:00,64.2,60.3,29.93,ENE,78,3.0,7.0,87,0.00,,---,0.00,VWS V14.01,2013-07-24 05:34:00,
2013-07-24 00:39:00,64.3,60.0,29.93,East,81,6.0,8.0,86,0.00,,---,0.00,VWS V14.01,2013-07-24 05:39:00,
2013-07-24 00:44:00,64.5,59.9,29.94,East,101,7.0,8.0,85,0.00,,---,0.00,VWS V14.01,2013-07-24 05:44:00,
2013-07-24 00:49:00,64.4,59.8,29.94,East,92,3.0,8.0,85,0.00,,---,0.00,VWS V14.01,2013-07-24 05:49:00,
2013-07-24 00:54:00,64.3,59.7,29.94,East,96,3.0,8.0,85,0.00,,---,0.00,VWS V14.01,2013-07-24 05:54:00,
2013-07-24 00:59:00,64.1,59.8,29.94,East,96,2.0,5.0,86,0.00,,---,0.00,VWS V14.01,2013-07-24 05:59:00,
2013-07-24 01:00:00,64.1,59.5,29.94,East,92,5.0,8.0,85,0.00,,---,0.00,VWS V14.01,2013-07-24 06:00:00,
2013-07-24 01:04:00,63.9,59.6,29.94,ESE,106,0.0,6.0,86,0.00,,---,0.00,VWS V14.01,2013-07-24 06:04:00,
2013-07-24 01:09:00,63.7,59.4,29.94,ESE,106,0.0,6.0,86,0.00,,---,0.00,VWS V14.01,2013-07-24 06:09:00,
2013-07-24 01:14:00,63.5,59.6,29.95,ESE,111,0.0,6.0,87,0.00,,---,0.00,VWS V14.01,2013-07-24 06:14:00,
2013-07-24 01:19:00,63.2,59.3,29.95,East,94,0.0,6.0,87,0.00,,---,0.00,VWS V14.01,2013-07-24 06:19:00,
2013-07-24 01:24:00,63.0,59.1,29.95,East,94,0.0,6.0,87,0.00,,---,0.00,VWS V14.01,2013-07-24 06:24:00,
2013-07-24 01:29:00,62.9,59.3,29.95,East,92,0.0,0.0,88,0.00,,---,0.00,VWS V14.01,2013-07-24 06:29:00,
2013-07-24 01:30:00,62.9,59.0,29.94,East,92,0.0,6.0,87,0.00,,---,0.00,VWS V14.01,2013-07-24 06:30:00,
2013-07-24 01:34:00,62.7,59.1,29.94,East,92,0.0,0.0,88,0.00,,---,0.00,VWS V14.01,2013-07-24 06:34:00,
2013-07-24 01:39:00,62.3,58.7,29.94,East,85,1.0,1.0,88,0.00,,---,0.00,VWS V14.01,2013-07-24 06:39:00,
2013-07-24 01:44:00,62.1,58.8,29.94,East,94,0.0,1.0,89,0.00,,---,0.00,VWS V14.01,2013-07-24 06:44:00,
2013-07-24 01:49:00,61.9,58.6,29.95,East,88,0.0,3.0,89,0.00,,---,0.00,VWS V14.01,2013-07-24 06:49:00,
2013-07-24 01:54:00,61.8,58.5,29.95,East,94,2.0,3.0,89,0.00,,---,0.00,VWS V14.01,2013-07-24 06:54:00,
2013-07-24 01:59:00,61.8,58.2,29.95,ENE,69,0.0,4.0,88,0.00,,---,0.00,VWS V14.01,2013-07-24 06:59:00,
2013-07-24 02:00:00,61.8,58.5,29.95,ENE,77,2.0,4.0,89,0.00,,---,0.00,VWS V14.01,2013-07-24 07:00:00,
2013-07-24 02:04:00,61.7,58.1,29.95,East,84,0.0,5.0,88,0.00,,---,0.00,VWS V14.01,2013-07-24 07:04:00,
2013-07-24 02:09:00,61.6,58.0,29.95,East,85,1.0,5.0,88,0.00,,---,0.00,VWS V14.01,2013-07-24 07:09:00,
2013-07-24 02:15:00,61.5,57.9,29.94,East,79,0.0,5.0,88,0.00,,---,0.00,VWS V14.01,2013-07-24 07:15:00,
2013-07-24 02:20:00,61.3,57.7,29.95,East,79,0.0,5.0,88,0.00,,---,0.00,VWS V14.01,2013-07-24 07:20:00,
2013-07-24 02:25:00,61.1,57.5,29.95,East,79,0.0,5.0,88,0.00,,---,0.00,VWS V14.01,2013-07-24 07:25:00,
2013-07-24 02:30:00,60.9,57.6,29.95,East,84,0.0,0.0,89,0.00,,---,0.00,VWS V14.01,2013-07-24 07:30:00,
2013-07-24 02:35:00,60.8,57.5,29.95,East,80,0.0,0.0,89,0.00,,---,0.00,VWS V14.01,2013-07-24 07:35:00,
2013-07-24 02:40:00,60.7,57.1,29.95,East,80,0.0,0.0,88,0.00,,---,0.00,VWS V14.01,2013-07-24 07:40:00,
2013-07-24 02:45:00,60.7,57.1,29.95,East,81,0.0,0.0,88,0.00,,---,0.00,VWS V14.01,2013-07-24 07:45:00,
2013-07-24 02:50:00,60.6,57.0,29.96,East,81,0.0,0.0,88,0.00,,---,0.00,VWS V14.01,2013-07-24 07:50:00,
2013-07-24 02:55:00,60.4,56.8,29.96,East,81,0.0,0.0,88,0.00,,---,0.00,VWS V14.01,2013-07-24 07:55:00,
2013-07-24 03:00:00,60.1,56.5,29.96,East,81,0.0,0.0,88,0.00,,---,0.00,VWS V14.01,2013-07-24 08:00:00,
2013-07-24 03:05:00,59.7,56.2,29.97,East,81,0.0,0.0,88,0.00,,---,0.00,VWS V14.01,2013-07-24 08:05:00,
2013-07-24 03:10:00,59.4,56.2,29.96,East,81,0.0,0.0,89,0.00,,---,0.00,VWS V14.01,2013-07-24 08:10:00,
2013-07-24 03:15:00,59.1,55.9,29.96,East,81,0.0,0.0,89,0.00,,---,0.00,VWS V14.01,2013-07-24 08:15:00,
2013-07-24 03:20:00,58.8,55.6,29.97,East,81,0.0,0.0,89,0.00,,---,0.00,VWS V14.01,2013-07-24 08:20:00,
2013-07-24 03:26:00,58.4,55.5,29.97,East,81,0.0,0.0,90,0.00,,---,0.00,VWS V14.01,2013-07-24 08:26:00,
2013-07-24 03:30:00,58.2,55.3,29.97,East,81,0.0,0.0,90,0.00,,---,0.00,VWS V14.01,2013-07-24 08:30:00,
2013-07-24 03:31:00,58.0,55.1,29.96,East,81,0.0,0.0,90,0.00,,---,0.00,VWS V14.01,2013-07-24 08:31:00,
2013-07-24 03:36:00,57.7,54.8,29.97,East,81,0.0,0.0,90,0.00,,---,0.00,VWS V14.01,2013-07-24 08:36:00,
2013-07-24 03:41:00,57.3,54.4,29.97,East,81,0.0,0.0,90,0.00,,---,0.00,VWS V14.01,2013-07-24 08:41:00,
2013-07-24 03:47:00,57.0,54.4,29.97,East,81,0.0,0.0,91,0.00,,---,0.00,VWS V14.01,2013-07-24 08:47:00,
2013-07-24 03:52:00,56.7,54.1,29.97,East,81,0.0,0.0,91,0.00,,---,0.00,VWS V14.01,2013-07-24 08:52:00,
2013-07-24 03:57:00,56.4,53.8,29.97,East,81,0.0,0.0,91,0.00,,---,0.00,VWS V14.01,2013-07-24 08:57:00,
2013-07-24 04:00:00,56.4,54.1,29.97,East,81,0.0,0.0,92,0.00,,---,0.00,VWS V14.01,2013-07-24 09:00:00,
2013-07-24 04:02:00,56.3,54.0,29.97,East,81,0.0,0.0,92,0.00,,---,0.00,VWS V14.01,2013-07-24 09:02:00,
2013-07-24 04:07:00,56.2,53.9,29.97,East,81,0.0,0.0,92,0.00,,---,0.00,VWS V14.01,2013-07-24 09:07:00,
2013-07-24 04:12:00,56.2,54.2,29.97,East,81,0.0,0.0,93,0.00,,---,0.00,VWS V14.01,2013-07-24 09:12:00,
2013-07-24 04:17:00,56.1,54.1,29.97,East,81,0.0,0.0,93,0.00,,---,0.00,VWS V14.01,2013-07-24 09:17:00,
2013-07-24 04:22:00,56.0,54.0,29.97,East,81,0.0,0.0,93,0.00,,---,0.00,VWS V14.01,2013-07-24 09:22:00,
2013-07-24 04:27:00,55.8,53.8,29.97,East,81,0.0,0.0,93,0.00,,---,0.00,VWS V14.01,2013-07-24 09:27:00,
2013-07-24 04:30:00,55.8,53.8,29.97,East,81,0.0,0.0,93,0.00,,---,0.00,VWS V14.01,2013-07-24 09:30:00,
2013-07-24 04:32:00,55.9,53.9,29.97,East,81,0.0,0.0,93,0.00,,---,0.00,VWS V14.01,2013-07-24 09:32:00,
2013-07-24 04:37:00,55.8,53.8,29.96,East,81,0.0,0.0,93,0.00,,---,0.00,VWS V14.01,2013-07-24 09:37:00,
2013-07-24 04:42:00,55.7,53.7,29.97,East,81,0.0,0.0,93,0.00,,---,0.00,VWS V14.01,2013-07-24 09:42:00,
2013-07-24 04:47:00,55.7,54.0,29.97,East,81,0.0,0.0,94,0.00,,---,0.00,VWS V14.01,2013-07-24 09:47:00,
2013-07-24 04:52:00,55.6,53.9,29.98,East,81,0.0,0.0,94,0.00,,---,0.00,VWS V14.01,2013-07-24 09:52:00,
2013-07-24 04:57:00,55.5,53.8,29.98,East,80,0.0,0.0,94,0.00,,---,0.00,VWS V14.01,2013-07-24 09:57:00,
2013-07-24 05:00:00,55.5,53.8,29.98,East,80,0.0,0.0,94,0.00,,---,0.00,VWS V14.01,2013-07-24 10:00:00,
2013-07-24 05:02:00,55.5,53.8,29.99,East,80,0.0,0.0,94,0.00,,---,0.00,VWS V14.01,2013-07-24 10:02:00,
2013-07-24 05:07:00,55.4,53.7,29.99,East,80,0.0,0.0,94,0.00,,---,0.00,VWS V14.01,2013-07-24 10:07:00,
2013-07-24 05:13:00,55.5,53.8,29.99,East,80,0.0,0.0,94,0.00,,---,0.00,VWS V14.01,2013-07-24 10:13:00,
2013-07-24 05:18:00,55.4,53.7,29.99,East,80,0.0,0.0,94,0.00,,---,0.00,VWS V14.01,2013-07-24 10:18:00,
2013-07-24 05:23:00,55.5,53.8,29.99,East,80,0.0,2.0,94,0.00,,---,0.00,VWS V14.01,2013-07-24 10:23:00,
2013-07-24 05:28:00,55.6,54.2,29.99,East,80,0.0,0.0,95,0.00,,---,0.00,VWS V14.01,2013-07-24 10:28:00,
2013-07-24 05:30:00,55.6,54.2,29.99,East,80,0.0,2.0,95,0.00,,---,0.00,VWS V14.01,2013-07-24 10:30:00,
2013-07-24 05:33:00,55.7,54.3,29.99,East,80,0.0,0.0,95,0.00,,---,0.00,VWS V14.01,2013-07-24 10:33:00,
2013-07-24 05:38:00,55.9,54.5,29.99,East,80,0.0,0.0,95,0.00,,---,0.00,VWS V14.01,2013-07-24 10:38:00,
2013-07-24 05:43:00,56.0,54.6,29.99,East,80,0.0,0.0,95,0.00,,---,0.00,VWS V14.01,2013-07-24 10:43:00,
2013-07-24 05:48:00,56.1,54.7,29.99,East,80,0.0,0.0,95,0.00,,---,0.00,VWS V14.01,2013-07-24 10:48:00,
2013-07-24 05:53:00,56.3,54.9,29.99,East,80,0.0,0.0,95,0.00,,---,0.00,VWS V14.01,2013-07-24 10:53:00,
2013-07-24 05:58:00,56.4,55.0,29.99,ENE,77,0.0,0.0,95,0.00,,---,0.00,VWS V14.01,2013-07-24 10:58:00,
2013-07-24 06:00:00,56.4,55.0,29.99,ENE,77,0.0,0.0,95,0.00,,---,0.00,VWS V14.01,2013-07-24 11:00:00,
2013-07-24 06:03:00,56.4,55.0,29.99,ENE,59,3.0,3.0,95,0.00,,---,0.00,VWS V14.01,2013-07-24 11:03:00,
2013-07-24 06:08:00,56.5,55.1,29.99,ENE,59,1.0,3.0,95,0.00,,---,0.00,VWS V14.01,2013-07-24 11:08:00,
2013-07-24 06:13:00,56.6,55.2,29.99,ENE,59,1.0,3.0,95,0.00,,---,0.00,VWS V14.01,2013-07-24 11:13:00,
2013-07-24 06:18:00,56.7,55.3,29.99,ENE,59,0.0,3.0,95,0.00,,---,0.00,VWS V14.01,2013-07-24 11:18:00,
2013-07-24 06:24:00,57.0,55.6,30.00,ENE,59,0.0,3.0,95,0.00,,---,0.00,VWS V14.01,2013-07-24 11:24:00,
2013-07-24 06:29:00,57.3,55.9,29.99,ENE,59,0.0,2.0,95,0.00,,---,0.00,VWS V14.01,2013-07-24 11:29:00,
2013-07-24 06:30:00,57.2,55.8,30.00,ENE,58,0.0,3.0,95,0.00,,---,0.00,VWS V14.01,2013-07-24 11:30:00,
2013-07-24 06:34:00,57.6,56.2,30.00,ENE,59,0.0,2.0,95,0.00,,---,0.00,VWS V14.01,2013-07-24 11:34:00,
2013-07-24 06:39:00,57.9,56.5,29.99,ENE,59,0.0,2.0,95,0.00,,---,0.00,VWS V14.01,2013-07-24 11:39:00,
2013-07-24 06:44:00,58.3,56.9,30.00,NE,51,0.0,2.0,95,0.00,,---,0.00,VWS V14.01,2013-07-24 11:44:00,
2013-07-24 06:49:00,58.6,56.9,30.00,NE,45,0.0,2.0,94,0.00,,---,0.00,VWS V14.01,2013-07-24 11:49:00,
2013-07-24 06:54:00,59.0,57.3,29.99,NE,45,0.0,2.0,94,0.00,,---,0.00,VWS V14.01,2013-07-24 11:54:00,
2013-07-24 06:59:00,59.5,57.8,30.00,NNE,30,0.0,0.0,94,0.00,,---,0.00,VWS V14.01,2013-07-24 11:59:00,
2013-07-24 07:00:00,59.3,57.6,30.00,NNE,30,0.0,2.0,94,0.00,,---,0.00,VWS V14.01,2013-07-24 12:00:00,
2013-07-24 07:04:00,60.1,58.1,30.00,NNE,30,0.0,0.0,93,0.00,,---,0.00,VWS V14.01,2013-07-24 12:04:00,
2013-07-24 07:09:00,60.8,58.8,30.00,NNE,13,0.0,2.0,93,0.00,,---,0.00,VWS V14.01,2013-07-24 12:09:00,
2013-07-24 07:14:00,61.5,58.8,30.00,NNE,19,3.0,4.0,91,0.00,,---,0.00,VWS V14.01,2013-07-24 12:14:00,
2013-07-24 07:19:00,61.9,58.9,30.00,North,5,2.0,4.0,90,0.00,,---,0.00,VWS V14.01,2013-07-24 12:19:00,
2013-07-24 07:24:00,62.3,59.0,30.01,North,5,2.0,5.0,89,0.00,,---,0.00,VWS V14.01,2013-07-24 12:24:00,
2013-07-24 07:29:00,62.6,59.3,30.01,North,5,3.0,6.0,89,0.00,,---,0.00,VWS V14.01,2013-07-24 12:29:00,
2013-07-24 07:30:00,62.5,59.2,30.01,North,9,0.0,5.0,89,0.00,,---,0.00,VWS V14.01,2013-07-24 12:30:00,
2013-07-24 07:34:00,62.9,59.3,30.01,NNE,13,1.0,6.0,88,0.00,,---,0.00,VWS V14.01,2013-07-24 12:34:00,
2013-07-24 07:39:00,63.0,59.4,30.01,North,5,7.0,8.0,88,0.00,,---,0.00,VWS V14.01,2013-07-24 12:39:00,
2013-07-24 07:44:00,63.2,59.3,30.01,NNE,13,3.0,8.0,87,0.00,,---,0.00,VWS V14.01,2013-07-24 12:44:00,
2013-07-24 07:49:00,63.3,59.4,30.01,NNE,21,2.0,8.0,87,0.00,,---,0.00,VWS V14.01,2013-07-24 12:49:00,
2013-07-24 07:54:00,63.5,58.9,30.01,NE,38,4.0,10.0,85,0.00,,---,0.00,VWS V14.01,2013-07-24 12:54:00,
2013-07-24 07:59:00,63.5,58.6,30.01,NE,47,7.0,10.0,84,0.00,,---,0.00,VWS V14.01,2013-07-24 12:59:00,
2013-07-24 08:00:00,63.5,58.9,30.01,NE,49,7.0,10.0,85,0.00,,---,0.00,VWS V14.01,2013-07-24 13:00:00,
2013-07-24 08:05:00,63.5,58.6,30.01,North,5,5.0,10.0,84,0.00,,---,0.00,VWS V14.01,2013-07-24 13:05:00,
2013-07-24 08:10:00,63.7,58.5,30.01,NE,52,3.0,10.0,83,0.00,,---,0.00,VWS V14.01,2013-07-24 13:10:00,
2013-07-24 08:15:00,63.8,58.2,30.01,NNE,18,5.0,10.0,82,0.00,,---,0.00,VWS V14.01,2013-07-24 13:15:00,
2013-07-24 08:20:00,63.9,58.0,30.01,ENE,76,2.0,10.0,81,0.00,,---,0.00,VWS V14.01,2013-07-24 13:20:00,
2013-07-24 08:25:00,64.0,58.1,30.00,ENE,65,9.0,11.0,81,0.00,,---,0.00,VWS V14.01,2013-07-24 13:25:00,
2013-07-24 08:30:00,64.1,57.8,30.01,NE,42,3.0,11.0,80,0.00,,---,0.00,VWS V14.01,2013-07-24 13:30:00,
2013-07-24 08:35:00,64.4,58.1,30.01,ENE,66,7.0,11.0,80,0.00,,---,0.00,VWS V14.01,2013-07-24 13:35:00,
2013-07-24 08:40:00,64.6,57.2,30.01,NE,46,8.0,12.0,77,0.00,,---,0.00,VWS V14.01,2013-07-24 13:40:00,
2013-07-24 08:45:00,64.7,57.7,30.01,NE,54,3.0,12.0,78,0.00,,---,0.00,VWS V14.01,2013-07-24 13:45:00,
2013-07-24 08:50:00,64.8,57.4,30.01,NE,45,8.0,12.0,77,0.00,,---,0.00,VWS V14.01,2013-07-24 13:50:00,
2013-07-24 08:55:00,65.1,57.0,30.01,ENE,57,8.0,12.0,75,0.00,,---,0.00,VWS V14.01,2013-07-24 13:55:00,
2013-07-24 09:00:00,65.4,57.3,30.01,NE,42,6.0,10.0,75,0.00,,---,0.00,VWS V14.01,2013-07-24 14:00:00,
2013-07-24 09:05:00,65.6,57.1,30.01,ENE,62,7.0,11.0,74,0.00,,---,0.00,VWS V14.01,2013-07-24 14:05:00,
2013-07-24 09:10:00,65.9,57.0,30.01,ENE,58,3.0,11.0,73,0.00,,---,0.00,VWS V14.01,2013-07-24 14:10:00,
2013-07-24 09:15:00,66.2,56.9,30.01,NE,46,1.0,11.0,72,0.00,,---,0.00,VWS V14.01,2013-07-24 14:15:00,
2013-07-24 09:20:00,66.3,57.0,30.01,ENE,78,7.0,11.0,72,0.00,,---,0.00,VWS V14.01,2013-07-24 14:20:00,
2013-07-24 09:25:00,66.6,56.5,30.01,East,80,2.0,11.0,70,0.00,,---,0.00,VWS V14.01,2013-07-24 14:25:00,
2013-07-24 09:30:00,66.7,55.8,30.01,NNE,19,2.0,10.0,68,0.00,,---,0.00,VWS V14.01,2013-07-24 14:30:00,
2013-07-24 09:35:00,67.1,55.4,30.01,East,87,10.0,11.0,66,0.00,,---,0.00,VWS V14.01,2013-07-24 14:35:00,
2013-07-24 09:41:00,67.2,55.9,30.01,ESE,114,2.0,11.0,67,0.00,,---,0.00,VWS V14.01,2013-07-24 14:41:00,
2013-07-24 09:46:00,67.3,55.2,30.01,ENE,64,9.0,11.0,65,0.00,,---,0.00,VWS V14.01,2013-07-24 14:46:00,
2013-07-24 09:51:00,67.4,55.7,30.01,NE,51,4.0,11.0,66,0.00,,---,0.00,VWS V14.01,2013-07-24 14:51:00,
2013-07-24 09:56:00,67.5,54.9,30.01,NE,44,6.0,13.0,64,0.00,,---,0.00,VWS V14.01,2013-07-24 14:56:00,
2013-07-24 10:00:00,67.5,55.3,30.01,ENE,76,10.0,13.0,65,0.00,,---,0.00,VWS V14.01,2013-07-24 15:00:00,
2013-07-24 10:01:00,67.8,55.2,30.01,ENE,74,3.0,13.0,64,0.00,,---,0.00,VWS V14.01,2013-07-24 15:01:00,
2013-07-24 10:07:00,67.9,54.8,30.02,ENE,64,7.0,13.0,63,0.00,,---,0.00,VWS V14.01,2013-07-24 15:07:00,
2013-07-24 10:12:00,68.1,54.6,30.02,ENE,73,2.0,13.0,62,0.00,,---,0.00,VWS V14.01,2013-07-24 15:12:00,
2013-07-24 10:17:00,68.6,54.2,30.02,NE,36,2.0,13.0,60,0.00,,---,0.00,VWS V14.01,2013-07-24 15:17:00,
2013-07-24 10:22:00,68.6,54.6,30.02,ENE,64,9.0,13.0,61,0.00,,---,0.00,VWS V14.01,2013-07-24 15:22:00,
2013-07-24 10:27:00,68.6,53.7,30.02,ENE,57,5.0,13.0,59,0.00,,---,0.00,VWS V14.01,2013-07-24 15:27:00,
2013-07-24 10:30:00,68.6,53.7,30.02,ENE,64,9.0,13.0,59,0.00,,---,0.00,VWS V14.01,2013-07-24 15:30:00,
2013-07-24 10:32:00,68.8,54.8,30.02,East,82,7.0,9.0,61,0.00,,---,0.00,VWS V14.01,2013-07-24 15:32:00,
2013-07-24 10:37:00,68.6,53.7,30.02,ENE,71,8.0,10.0,59,0.00,,---,0.00,VWS V14.01,2013-07-24 15:37:00,
2013-07-24 10:42:00,68.6,54.6,30.02,NE,55,3.0,11.0,61,0.00,,---,0.00,VWS V14.01,2013-07-24 15:42:00,
2013-07-24 10:47:00,68.7,54.3,30.03,NE,46,6.0,11.0,60,0.00,,---,0.00,VWS V14.01,2013-07-24 15:47:00,
2013-07-24 10:52:00,68.8,55.3,30.03,East,87,8.0,11.0,62,0.00,,---,0.00,VWS V14.01,2013-07-24 15:52:00,
2013-07-24 10:57:00,69.0,55.0,30.03,ENE,57,7.0,11.0,61,0.00,,---,0.00,VWS V14.01,2013-07-24 15:57:00,
2013-07-24 11:00:00,69.0,55.0,30.03,East,82,8.0,11.0,61,0.00,,---,0.00,VWS V14.01,2013-07-24 16:00:00,
2013-07-24 11:02:00,69.0,55.0,30.03,NNE,20,10.0,10.0,61,0.00,,---,0.00,VWS V14.01,2013-07-24 16:02:00,
2013-07-24 11:07:00,69.6,54.2,30.03,NNE,28,2.0,10.0,58,0.00,,---,0.00,VWS V14.01,2013-07-24 16:07:00,
2013-07-24 11:12:00,69.9,54.9,30.03,NE,38,0.0,10.0,59,0.00,,---,0.00,VWS V14.01,2013-07-24 16:12:00,
2013-07-24 11:17:00,69.9,55.4,30.03,East,92,1.0,10.0,60,0.00,,---,0.00,VWS V14.01,2013-07-24 16:17:00,
2013-07-24 11:22:00,70.0,54.6,30.04,East,95,1.0,10.0,58,0.00,,---,0.00,VWS V14.01,2013-07-24 16:22:00,
2013-07-24 11:27:00,70.4,54.5,30.04,North,355,9.0,11.0,57,0.00,,---,0.00,VWS V14.01,2013-07-24 16:27:00,
2013-07-24 11:30:00,70.4,54.5,30.04,North,355,9.0,11.0,57,0.00,,---,0.00,VWS V14.01,2013-07-24 16:30:00,
2013-07-24 11:32:00,70.8,54.8,30.04,NNW,333,2.0,9.0,57,0.00,,---,0.00,VWS V14.01,2013-07-24 16:32:00,
2013-07-24 11:37:00,70.6,54.6,30.04,ENE,73,1.0,9.0,57,0.00,,---,0.00,VWS V14.01,2013-07-24 16:37:00,
2013-07-24 11:42:00,70.8,55.8,30.04,NNE,25,6.0,9.0,59,0.00,,---,0.00,VWS V14.01,2013-07-24 16:42:00,
2013-07-24 11:48:00,71.4,54.9,30.04,North,5,8.0,11.0,56,0.00,,---,0.00,VWS V14.01,2013-07-24 16:48:00,
2013-07-24 11:53:00,71.6,55.1,30.04,NNW,338,1.0,11.0,56,0.00,,---,0.00,VWS V14.01,2013-07-24 16:53:00,
2013-07-24 11:58:00,72.0,55.0,30.04,North,9,11.0,12.0,55,0.00,,---,0.00,VWS V14.01,2013-07-24 16:58:00,
2013-07-24 12:00:00,72.0,54.5,30.04,North,355,6.0,11.0,54,0.00,,---,0.00,VWS V14.01,2013-07-24 17:00:00,
2013-07-24 12:03:00,72.0,54.5,30.04,NNE,30,4.0,12.0,54,0.00,,---,0.00,VWS V14.01,2013-07-24 17:03:00,
2013-07-24 12:08:00,71.5,54.5,30.04,NNE,18,3.0,12.0,55,0.00,,---,0.00,VWS V14.01,2013-07-24 17:08:00,
2013-07-24 12:13:00,71.4,53.9,30.04,NNE,30,7.0,12.0,54,0.00,,---,0.00,VWS V14.01,2013-07-24 17:13:00,
2013-07-24 12:18:00,71.9,53.3,30.04,NNE,22,1.0,12.0,52,0.00,,---,0.00,VWS V14.01,2013-07-24 17:18:00,
2013-07-24 12:23:00,71.8,54.3,30.04,NNE,22,2.0,12.0,54,0.00,,---,0.00,VWS V14.01,2013-07-24 17:23:00,
2013-07-24 12:28:00,71.7,55.7,30.04,NE,34,1.0,3.0,57,0.00,,---,0.00,VWS V14.01,2013-07-24 17:28:00,
2013-07-24 12:30:00,71.7,54.7,30.04,NE,52,2.0,12.0,55,0.00,,---,0.00,VWS V14.01,2013-07-24 17:30:00,
2013-07-24 12:33:00,72.1,54.6,30.04,North,5,4.0,7.0,54,0.00,,---,0.00,VWS V14.01,2013-07-24 17:33:00,
2013-07-24 12:38:00,72.5,54.4,30.04,NNW,340,10.0,14.0,53,0.00,,---,0.00,VWS V14.01,2013-07-24 17:38:00,
2013-07-24 12:43:00,72.6,54.5,30.03,North,360,2.0,14.0,53,0.00,,---,0.00,VWS V14.01,2013-07-24 17:43:00,
2013-07-24 12:48:00,72.5,54.9,30.04,NNE,15,8.0,14.0,54,0.00,,---,0.00,VWS V14.01,2013-07-24 17:48:00,
2013-07-24 12:53:00,72.7,54.6,30.04,NE,49,6.0,14.0,53,0.00,,---,0.00,VWS V14.01,2013-07-24 17:53:00,
2013-07-24 12:58:00,72.3,54.7,30.04,NE,40,2.0,5.0,54,0.00,,---,0.00,VWS V14.01,2013-07-24 17:58:00,
2013-07-24 13:00:00,72.5,55.4,30.04,NE,53,3.0,14.0,55,0.00,,---,0.00,VWS V14.01,2013-07-24 18:00:00,
2013-07-24 13:04:00,72.5,54.9,30.03,NNW,335,8.0,9.0,54,0.00,,---,0.00,VWS V14.01,2013-07-24 18:04:00,
2013-07-24 13:09:00,73.1,55.5,30.03,NNW,332,9.0,16.0,54,0.00,,---,0.00,VWS V14.01,2013-07-24 18:09:00,
2013-07-24 13:14:00,73.4,54.7,30.03,NNW,344,10.0,16.0,52,0.00,,---,0.00,VWS V14.01,2013-07-24 18:14:00,
2013-07-24 13:19:00,73.4,54.2,30.04,North,350,8.0,16.0,51,0.00,,---,0.00,VWS V14.01,2013-07-24 18:19:00,
2013-07-24 13:24:00,73.5,55.3,30.03,NE,47,6.0,16.0,53,0.00,,---,0.00,VWS V14.01,2013-07-24 18:24:00,
2013-07-24 13:29:00,73.4,55.2,30.03,NNE,14,4.0,11.0,53,0.00,,---,0.00,VWS V14.01,2013-07-24 18:29:00,
2013-07-24 13:30:00,71.7,54.7,30.04,NE,52,2.0,12.0,55,0.00,,---,0.00,VWS V14.01,2013-07-24 18:30:00,
2013-07-24 13:34:00,73.1,55.5,30.03,NNE,27,2.0,11.0,54,0.00,,---,0.00,VWS V14.01,2013-07-24 18:34:00,
2013-07-24 13:39:00,72.7,54.6,30.03,NNW,338,5.0,11.0,53,0.00,,---,0.00,VWS V14.01,2013-07-24 18:39:00,
2013-07-24 13:44:00,73.1,55.0,30.03,North,11,1.0,11.0,53,0.00,,---,0.00,VWS V14.01,2013-07-24 18:44:00,
2013-07-24 13:49:00,73.6,54.4,30.03,NNW,346,8.0,11.0,51,0.00,,---,0.00,VWS V14.01,2013-07-24 18:49:00,
2013-07-24 13:54:00,74.2,54.4,30.03,NNE,12,4.0,12.0,50,0.00,,---,0.00,VWS V14.01,2013-07-24 18:54:00,
2013-07-24 13:59:00,74.2,55.5,30.02,North,360,9.0,11.0,52,0.00,,---,0.00,VWS V14.01,2013-07-24 18:59:00,
2013-07-24 14:00:00,74.2,55.5,30.03,NNE,30,4.0,12.0,52,0.00,,---,0.00,VWS V14.01,2013-07-24 19:00:00,
2013-07-24 14:04:00,74.4,55.1,30.02,NNW,330,5.0,11.0,51,0.00,,---,0.00,VWS V14.01,2013-07-24 19:04:00,
2013-07-24 14:09:00,74.4,55.1,30.02,NW,319,8.0,11.0,51,0.00,,---,0.00,VWS V14.01,2013-07-24 19:09:00,
2013-07-24 14:14:00,74.6,55.8,30.02,North,350,12.0,13.0,52,0.00,,---,0.00,VWS V14.01,2013-07-24 19:14:00,
2013-07-24 14:19:00,75.1,55.2,30.02,North,350,4.0,13.0,50,0.00,,---,0.00,VWS V14.01,2013-07-24 19:19:00,
2013-07-24 14:24:00,75.1,54.7,30.02,NNW,331,3.0,13.0,49,0.00,,---,0.00,VWS V14.01,2013-07-24 19:24:00,
2013-07-24 14:30:00,74.9,55.0,30.02,NNE,30,9.0,11.0,50,0.00,,---,0.00,VWS V14.01,2013-07-24 19:30:00,
2013-07-24 14:35:00,74.4,54.6,30.02,NNE,30,7.0,11.0,50,0.00,,---,0.00,VWS V14.01,2013-07-24 19:35:00,
2013-07-24 14:40:00,74.5,55.2,30.02,NE,41,3.0,11.0,51,0.00,,---,0.00,VWS V14.01,2013-07-24 19:40:00,
2013-07-24 14:45:00,74.3,55.6,30.01,NNE,24,2.0,11.0,52,0.00,,---,0.00,VWS V14.01,2013-07-24 19:45:00,
2013-07-24 14:50:00,74.4,55.7,30.01,NE,44,0.0,11.0,52,0.00,,---,0.00,VWS V14.01,2013-07-24 19:50:00,
2013-07-24 14:55:00,74.2,54.4,30.01,ENE,57,10.0,11.0,50,0.00,,---,0.00,VWS V14.01,2013-07-24 19:55:00,
2013-07-24 15:00:00,74.1,55.4,30.01,NE,43,9.0,13.0,52,0.00,,---,0.00,VWS V14.01,2013-07-24 20:00:00,
2013-07-24 15:05:00,74.0,54.7,30.01,NE,42,5.0,13.0,51,0.00,,---,0.00,VWS V14.01,2013-07-24 20:05:00,
2013-07-24 15:10:00,74.2,54.4,30.02,NE,42,4.0,13.0,50,0.00,,---,0.00,VWS V14.01,2013-07-24 20:10:00,
2013-07-24 15:15:00,74.8,56.0,30.01,NNW,335,1.0,13.0,52,0.00,,---,0.00,VWS V14.01,2013-07-24 20:15:00,
2013-07-24 15:20:00,75.6,56.2,30.02,NNE,17,7.0,13.0,51,0.00,,---,0.00,VWS V14.01,2013-07-24 20:20:00,
2013-07-24 15:25:00,76.0,54.9,30.02,NW,306,1.0,13.0,48,0.00,,---,0.00,VWS V14.01,2013-07-24 20:25:00,
2013-07-24 15:30:00,75.9,56.0,30.01,NNE,13,4.0,12.0,50,0.00,,---,0.00,VWS V14.01,2013-07-24 20:30:00,
2013-07-24 15:36:00,75.8,54.2,30.01,NW,321,15.0,15.0,47,0.00,,---,0.00,VWS V14.01,2013-07-24 20:36:00,
2013-07-24 15:41:00,75.7,55.2,30.01,North,349,4.0,15.0,49,0.00,,---,0.00,VWS V14.01,2013-07-24 20:41:00,
2013-07-24 15:46:00,75.5,55.6,30.01,NNW,331,7.0,15.0,50,0.00,,---,0.00,VWS V14.01,2013-07-24 20:46:00,
2013-07-24 15:51:00,75.7,55.2,30.01,North,349,7.0,15.0,49,0.00,,---,0.00,VWS V14.01,2013-07-24 20:51:00,
2013-07-24 15:56:00,76.0,56.0,30.01,North,355,7.0,15.0,50,0.00,,---,0.00,VWS V14.01,2013-07-24 20:56:00,
2013-07-24 16:00:00,76.0,53.8,30.01,NNW,346,6.0,15.0,46,0.00,,---,0.00,VWS V14.01,2013-07-24 21:00:00,
2013-07-24 16:01:00,76.2,56.2,30.01,North,355,3.0,6.0,50,0.00,,---,0.00,VWS V14.01,2013-07-24 21:01:00,
2013-07-24 16:06:00,76.0,54.3,30.01,ENE,59,2.0,10.0,47,0.00,,---,0.00,VWS V14.01,2013-07-24 21:06:00,
2013-07-24 16:11:00,75.9,55.4,30.01,North,360,6.0,11.0,49,0.00,,---,0.00,VWS V14.01,2013-07-24 21:11:00,
2013-07-24 16:16:00,76.1,53.8,30.00,ENE,57,1.0,11.0,46,0.00,,---,0.00,VWS V14.01,2013-07-24 21:16:00,
2013-07-24 16:21:00,75.9,54.8,30.00,ENE,63,5.0,11.0,48,0.00,,---,0.00,VWS V14.01,2013-07-24 21:21:00,
2013-07-24 16:26:00,75.1,55.2,30.00,NE,41,2.0,11.0,50,0.00,,---,0.00,VWS V14.01,2013-07-24 21:26:00,
2013-07-24 16:30:00,75.1,55.8,30.00,NE,53,4.0,11.0,51,0.00,,---,0.00,VWS V14.01,2013-07-24 21:30:00,
2013-07-24 16:32:00,74.8,56.0,30.00,NE,36,5.0,10.0,52,0.00,,---,0.00,VWS V14.01,2013-07-24 21:32:00,
2013-07-24 16:37:00,74.7,55.4,30.00,NE,48,3.0,10.0,51,0.00,,---,0.00,VWS V14.01,2013-07-24 21:37:00,
2013-07-24 16:42:00,75.0,55.7,30.00,NNW,338,2.0,10.0,51,0.00,,---,0.00,VWS V14.01,2013-07-24 21:42:00,
2013-07-24 16:47:00,75.8,55.3,30.01,North,5,3.0,11.0,49,0.00,,---,0.00,VWS V14.01,2013-07-24 21:47:00,
2013-07-24 16:52:00,76.2,55.1,30.01,North,10,2.0,11.0,48,0.00,,---,0.00,VWS V14.01,2013-07-24 21:52:00,
2013-07-24 16:57:00,76.2,55.7,30.01,NE,44,5.0,11.0,49,0.00,,---,0.00,VWS V14.01,2013-07-24 21:57:00,
2013-07-24 17:00:00,76.2,55.7,30.01,NE,44,4.0,11.0,49,0.00,,---,0.00,VWS V14.01,2013-07-24 22:00:00,
2013-07-24 17:02:00,75.5,55.6,30.01,NNE,19,5.0,7.0,50,0.00,,---,0.00,VWS V14.01,2013-07-24 22:02:00,
2013-07-24 17:07:00,75.6,55.1,30.01,NNW,337,3.0,7.0,49,0.00,,---,0.00,VWS V14.01,2013-07-24 22:07:00,
2013-07-24 17:12:00,76.3,55.2,30.01,NNW,333,3.0,7.0,48,0.00,,---,0.00,VWS V14.01,2013-07-24 22:12:00,
2013-07-24 17:17:00,76.7,55.0,30.01,North,355,3.0,10.0,47,0.00,,---,0.00,VWS V14.01,2013-07-24 22:17:00,
2013-07-24 17:22:00,76.6,55.5,30.01,NW,325,5.0,10.0,48,0.00,,---,0.00,VWS V14.01,2013-07-24 22:22:00,
2013-07-24 17:27:00,76.5,55.9,30.01,NNW,342,8.0,8.0,49,0.00,,---,0.00,VWS V14.01,2013-07-24 22:27:00,
2013-07-24 17:30:00,76.5,55.9,30.00,NNW,342,8.0,10.0,49,0.00,,---,0.00,VWS V14.01,2013-07-24 22:30:00,
2013-07-24 17:32:00,76.5,54.8,30.00,NNW,337,5.0,9.0,47,0.00,,---,0.00,VWS V14.01,2013-07-24 22:32:00,
2013-07-24 17:37:00,76.7,55.5,30.00,NNW,333,3.0,9.0,48,0.00,,---,0.00,VWS V14.01,2013-07-24 22:37:00,
2013-07-24 17:42:00,76.1,55.6,30.01,NW,322,5.0,9.0,49,0.00,,---,0.00,VWS V14.01,2013-07-24 22:42:00,
2013-07-24 17:47:00,74.7,55.9,30.00,NW,311,3.0,9.0,52,0.00,,---,0.00,VWS V14.01,2013-07-24 22:47:00,
2013-07-24 17:53:00,73.8,56.1,30.00,NW,323,4.0,9.0,54,0.00,,---,0.00,VWS V14.01,2013-07-24 22:53:00,
2013-07-24 17:58:00,74.2,56.5,30.00,NNW,329,3.0,5.0,54,0.00,,---,0.00,VWS V14.01,2013-07-24 22:58:00,
2013-07-24 18:00:00,74.1,56.4,30.00,NNW,331,4.0,9.0,54,0.00,,---,0.00,VWS V14.01,2013-07-24 23:00:00,
2013-07-24 18:03:00,74.2,57.5,30.01,NNW,330,3.0,5.0,56,0.00,,---,0.00,VWS V14.01,2013-07-24 23:03:00,
2013-07-24 18:08:00,73.7,57.5,30.01,NNW,331,2.0,5.0,57,0.00,,---,0.00,VWS V14.01,2013-07-24 23:08:00,
2013-07-24 18:14:00,72.9,57.8,30.01,NW,325,2.0,5.0,59,0.00,,---,0.00,VWS V14.01,2013-07-24 23:14:00,
2013-07-24 18:19:00,72.4,57.3,30.01,NNW,329,5.0,5.0,59,0.00,,---,0.00,VWS V14.01,2013-07-24 23:19:00,
2013-07-24 18:24:00,72.8,56.7,30.01,NNW,334,2.0,7.0,57,0.00,,---,0.00,VWS V14.01,2013-07-24 23:24:00,
2013-07-24 18:29:00,73.0,57.8,30.01,NNW,333,1.0,2.0,59,0.00,,---,0.00,VWS V14.01,2013-07-24 23:29:00,
2013-07-24 18:30:00,73.0,57.4,30.01,NNW,333,1.0,7.0,58,0.00,,---,0.00,VWS V14.01,2013-07-24 23:30:00,
2013-07-24 18:34:00,72.7,58.0,30.01,NNW,334,0.0,2.0,60,0.00,,---,0.00,VWS V14.01,2013-07-24 23:34:00,
2013-07-24 18:39:00,72.7,58.0,30.01,WNW,286,2.0,2.0,60,0.00,,---,0.00,VWS V14.01,2013-07-24 23:39:00,
2013-07-24 18:44:00,73.4,57.3,30.01,North,360,6.0,8.0,57,0.00,,---,0.00,VWS V14.01,2013-07-24 23:44:00,
2013-07-24 18:49:00,74.3,57.1,30.01,NNW,331,1.0,8.0,55,0.00,,---,0.00,VWS V14.01,2013-07-24 23:49:00,
2013-07-24 18:54:00,74.9,56.6,30.01,NW,312,3.0,8.0,53,0.00,,---,0.00,VWS V14.01,2013-07-24 23:54:00,
2013-07-24 18:59:00,75.0,57.2,30.01,NNW,341,4.0,5.0,54,0.00,,---,0.00,VWS V14.01,2013-07-24 23:59:00,
2013-07-24 19:00:00,74.9,57.2,30.01,NW,309,3.0,8.0,54,0.00,,---,0.00,VWS V14.01,2013-07-25 00:00:00,
2013-07-24 19:04:00,75.1,56.8,30.01,NW,321,4.0,9.0,53,0.00,,---,0.00,VWS V14.01,2013-07-25 00:04:00,
2013-07-24 19:09:00,74.5,56.8,30.01,NNW,327,5.0,9.0,54,0.00,,---,0.00,VWS V14.01,2013-07-25 00:09:00,
2013-07-24 19:14:00,74.2,56.5,30.01,NW,315,3.0,9.0,54,0.00,,---,0.00,VWS V14.01,2013-07-25 00:14:00,
2013-07-24 19:19:00,73.5,57.8,30.01,NW,318,2.0,9.0,58,0.00,,---,0.00,VWS V14.01,2013-07-25 00:19:00,
2013-07-24 19:24:00,73.2,58.0,30.01,NW,326,2.0,9.0,59,0.00,,---,0.00,VWS V14.01,2013-07-25 00:24:00,
2013-07-24 19:29:00,73.2,58.0,30.01,NNW,327,3.0,3.0,59,0.00,,---,0.00,VWS V14.01,2013-07-25 00:29:00,
2013-07-24 19:30:00,73.2,58.5,30.02,NNW,328,2.0,9.0,60,0.00,,---,0.00,VWS V14.01,2013-07-25 00:30:00,
2013-07-24 19:34:00,73.1,58.4,30.02,NNW,336,2.0,3.0,60,0.00,,---,0.00,VWS V14.01,2013-07-25 00:34:00,
2013-07-24 19:39:00,73.1,58.4,30.02,NNW,340,4.0,4.0,60,0.00,,---,0.00,VWS V14.01,2013-07-25 00:39:00,
2013-07-24 19:44:00,73.0,58.8,30.01,NNW,341,2.0,4.0,61,0.00,,---,0.00,VWS V14.01,2013-07-25 00:44:00,
2013-07-24 19:50:00,72.9,58.7,30.01,NNW,346,1.0,4.0,61,0.00,,---,0.00,VWS V14.01,2013-07-25 00:50:00,
2013-07-24 19:55:00,72.8,58.1,30.01,North,355,1.0,4.0,60,0.00,,---,0.00,VWS V14.01,2013-07-25 00:55:00,
2013-07-24 20:00:00,72.6,57.9,30.01,North,355,0.0,1.0,60,0.00,,---,0.00,VWS V14.01,2013-07-25 01:00:00,
2013-07-24 20:05:00,72.4,58.2,30.01,North,355,0.0,1.0,61,0.00,,---,0.00,VWS V14.01,2013-07-25 01:05:00,
2013-07-24 20:10:00,72.1,58.4,30.01,North,355,0.0,1.0,62,0.00,,---,0.00,VWS V14.01,2013-07-25 01:10:00,
2013-07-24 20:15:00,71.3,58.5,30.01,North,355,0.0,1.0,64,0.00,,---,0.00,VWS V14.01,2013-07-25 01:15:00,
2013-07-24 20:20:00,70.8,59.3,30.01,North,355,0.0,1.0,67,0.00,,---,0.00,VWS V14.01,2013-07-25 01:20:00,
2013-07-24 20:25:00,70.2,58.7,30.01,North,355,0.0,1.0,67,0.00,,---,0.00,VWS V14.01,2013-07-25 01:25:00,
2013-07-24 20:30:00,69.3,58.7,30.01,North,355,0.0,0.0,69,0.00,,---,0.00,VWS V14.01,2013-07-25 01:30:00,
2013-07-24 20:35:00,68.7,58.5,30.01,North,355,0.0,0.0,70,0.00,,---,0.00,VWS V14.01,2013-07-25 01:35:00,
2013-07-24 20:40:00,67.9,58.5,30.01,North,355,0.0,0.0,72,0.00,,---,0.00,VWS V14.01,2013-07-25 01:40:00,
2013-07-24 20:45:00,67.0,58.5,30.01,North,355,0.0,0.0,74,0.00,,---,0.00,VWS V14.01,2013-07-25 01:45:00,
2013-07-24 20:50:00,66.3,58.5,30.01,North,355,0.0,0.0,76,0.00,,---,0.00,VWS V14.01,2013-07-25 01:50:00,
2013-07-24 20:55:00,65.5,58.1,30.01,North,355,0.0,0.0,77,0.00,,---,0.00,VWS V14.01,2013-07-25 01:55:00,
2013-07-24 21:00:00,64.9,57.9,30.01,North,355,0.0,0.0,78,0.00,,---,0.00,VWS V14.01,2013-07-25 02:00:00,
2013-07-24 21:05:00,64.5,57.5,30.01,North,355,0.0,0.0,78,0.00,,---,0.00,VWS V14.01,2013-07-25 02:05:00,
2013-07-24 21:10:00,64.1,57.1,30.01,North,355,0.0,0.0,78,0.00,,---,0.00,VWS V14.01,2013-07-25 02:10:00,
2013-07-24 21:16:00,63.7,57.4,30.01,North,355,0.0,0.0,80,0.00,,---,0.00,VWS V14.01,2013-07-25 02:16:00,
2013-07-24 21:21:00,63.1,57.5,30.01,North,355,0.0,0.0,82,0.00,,---,0.00,VWS V14.01,2013-07-25 02:21:00,
2013-07-24 21:26:00,63.0,57.8,30.01,North,355,0.0,0.0,83,0.00,,---,0.00,VWS V14.01,2013-07-25 02:26:00,
2013-07-24 21:30:00,62.9,57.7,30.01,North,355,0.0,0.0,83,0.00,,---,0.00,VWS V14.01,2013-07-25 02:30:00,
2013-07-24 21:31:00,62.7,57.5,30.01,North,355,0.0,0.0,83,0.00,,---,0.00,VWS V14.01,2013-07-25 02:31:00,
2013-07-24 21:36:00,62.6,57.4,30.01,North,355,0.0,0.0,83,0.00,,---,0.00,VWS V14.01,2013-07-25 02:36:00,
2013-07-24 21:41:00,62.5,56.9,30.01,North,355,0.0,0.0,82,0.00,,---,0.00,VWS V14.01,2013-07-25 02:41:00,
2013-07-24 21:46:00,62.5,56.9,30.02,North,355,0.0,0.0,82,0.00,,---,0.00,VWS V14.01,2013-07-25 02:46:00,
2013-07-24 21:51:00,62.3,57.1,30.02,North,355,0.0,0.0,83,0.00,,---,0.00,VWS V14.01,2013-07-25 02:51:00,
2013-07-24 21:56:00,61.9,57.0,30.02,North,355,0.0,0.0,84,0.00,,---,0.00,VWS V14.01,2013-07-25 02:56:00,
2013-07-24 22:00:00,61.8,56.9,30.02,North,355,0.0,0.0,84,0.00,,---,0.00,VWS V14.01,2013-07-25 03:00:00,
2013-07-24 22:01:00,61.3,56.4,30.03,North,355,0.0,0.0,84,0.00,,---,0.00,VWS V14.01,2013-07-25 03:01:00,
2013-07-24 22:07:00,60.9,56.4,30.02,North,355,0.0,0.0,85,0.00,,---,0.00,VWS V14.01,2013-07-25 03:07:00,
2013-07-24 22:12:00,60.6,56.4,30.02,North,355,0.0,0.0,86,0.00,,---,0.00,VWS V14.01,2013-07-25 03:12:00,
2013-07-24 22:17:00,60.5,56.3,30.03,North,355,0.0,0.0,86,0.00,,---,0.00,VWS V14.01,2013-07-25 03:17:00,
2013-07-24 22:22:00,60.3,56.1,30.03,North,355,0.0,0.0,86,0.00,,---,0.00,VWS V14.01,2013-07-25 03:22:00,
2013-07-24 22:27:00,60.1,55.9,30.03,North,355,0.0,0.0,86,0.00,,---,0.00,VWS V14.01,2013-07-25 03:27:00,
2013-07-24 22:30:00,60.1,55.9,30.03,North,355,0.0,0.0,86,0.00,,---,0.00,VWS V14.01,2013-07-25 03:30:00,
2013-07-24 22:33:00,60.0,56.1,30.03,North,355,0.0,0.0,87,0.00,,---,0.00,VWS V14.01,2013-07-25 03:33:00,
2013-07-24 22:38:00,59.8,55.9,30.03,North,355,0.0,0.0,87,0.00,,---,0.00,VWS V14.01,2013-07-25 03:38:00,
2013-07-24 22:43:00,59.6,55.7,30.03,North,355,0.0,0.0,87,0.00,,---,0.00,VWS V14.01,2013-07-25 03:43:00,
2013-07-24 22:48:00,59.4,55.5,30.03,North,355,0.0,0.0,87,0.00,,---,0.00,VWS V14.01,2013-07-25 03:48:00,
2013-07-24 22:53:00,59.2,55.7,30.03,North,355,0.0,0.0,88,0.00,,---,0.00,VWS V14.01,2013-07-25 03:53:00,
2013-07-24 22:58:00,59.2,55.7,30.04,North,355,0.0,0.0,88,0.00,,---,0.00,VWS V14.01,2013-07-25 03:58:00,
2013-07-24 23:00:00,59.2,55.7,30.04,North,355,0.0,0.0,88,0.00,,---,0.00,VWS V14.01,2013-07-25 04:00:00,
2013-07-24 23:01:00,59.1,55.5,30.04,North,355,0.0,0.0,88,0.00,,---,0.00,VWS V14.01,2013-07-25 04:01:00,
2013-07-24 23:02:00,59.1,55.5,30.04,North,355,0.0,0.0,88,0.00,,---,0.00,VWS V14.01,2013-07-25 04:02:00,
2013-07-24 23:03:00,59.1,55.5,30.04,North,355,0.0,0.0,88,0.00,,---,0.00,VWS V14.01,2013-07-25 04:03:00,
2013-07-24 23:08:00,59.0,55.5,30.04,North,355,0.0,0.0,88,0.00,,---,0.00,VWS V14.01,2013-07-25 04:08:00,
2013-07-24 23:13:00,59.0,55.5,30.04,North,355,0.0,0.0,88,0.00,,---,0.00,VWS V14.01,2013-07-25 04:13:00,
2013-07-24 23:18:00,59.0,55.5,30.04,North,355,0.0,0.0,88,0.00,,---,0.00,VWS V14.01,2013-07-25 04:18:00,
2013-07-24 23:23:00,59.1,55.9,30.04,North,355,0.0,0.0,89,0.00,,---,0.00,VWS V14.01,2013-07-25 04:23:00,
2013-07-24 23:28:00,59.1,55.5,30.03,North,355,0.0,0.0,88,0.00,,---,0.00,VWS V14.01,2013-07-25 04:28:00,
2013-07-24 23:30:00,59.1,55.6,30.03,North,355,0.0,0.0,88,0.00,,---,0.00,VWS V14.01,2013-07-25 04:30:00,
2013-07-24 23:33:00,59.0,55.5,30.03,North,355,0.0,0.0,88,0.00,,---,0.00,VWS V14.01,2013-07-25 04:33:00,
2013-07-24 23:38:00,58.9,55.7,30.03,North,355,0.0,0.0,89,0.00,,---,0.00,VWS V14.01,2013-07-25 04:38:00,
2013-07-24 23:43:00,58.7,55.5,30.03,NNW,348,0.0,0.0,89,0.00,,---,0.00,VWS V14.01,2013-07-25 04:43:00,
2013-07-24 23:48:00,58.6,55.4,30.03,NNW,348,2.0,3.0,89,0.00,,---,0.00,VWS V14.01,2013-07-25 04:48:00,
2013-07-24 23:53:00,58.5,55.3,30.03,NNW,348,0.0,3.0,89,0.00,,---,0.00,VWS V14.01,2013-07-25 04:53:00,
2013-07-24 23:58:00,58.4,54.9,30.03,NNW,348,0.0,0.0,88,0.00,,---,0.00,VWS V14.01,2013-07-25 04:58:00,